Weather History for Oakland, CA

Change the Weather History Date:

Saturday, December 8, 2012

  Actual Average Record
Temperature  
Mean Temperature 53 °F 50 °F  
Max Temperature 64 °F 57 °F 69 °F (2006)
Min Temperature 42 °F 42 °F 27 °F (1972)
Degree Days  
Heating Degree Days 12 15  
Month to date heating degree days 66 119  
Since 1 July heating degree days 687 794  
Cooling Degree Days 0 0  
Month to date cooling degree days 0 0  
Year to date cooling degree days 61 138  
Growing Degree Days 3 (Base 50)    
Moisture  
Dew Point 44 °F    
Average Humidity 66    
Maximum Humidity 93    
Minimum Humidity 39    
Precipitation  
Precipitation 0.00 in 0.11 in 1.96 in (2004)
Month to date precipitation 2.11 0.78  
Year to date precipitation 19.22 17.93  
Since 1 July precipitation 7.28 4.71  
Sea Level Pressure  
Sea Level Pressure 30.09 in    
Wind  
Wind Speed 4 mph (North)    
Max Wind Speed 10 mph    
Max Gust Speed 25 mph    
Visibility 10 miles    
Events      
T = Trace of Precipitation, MM = Missing Value Source: NWS Daily Summary

Daily Weather History Graph

Daily Weather History Graph

Search for Another Location

Airport:

Trip Planner

Search our weather history database for the weather conditions in past years. The results will help you decide how hot, cold, wet, or windy it might be!

Date:

Astronomy

Dec. 08, 2012 Rise Set
Actual Time 7:12 AM PST 4:50 PM PST
Civil Twilight 6:42 AM PST 5:19 PM PST
Nautical Twilight 6:10 AM PST 5:52 PM PST
Astronomical Twilight 5:38 AM PST 6:23 PM PST
Moon 1:47 AM PST (12/8) 1:19 PM PST (12/8)
Length of Visible Light 10h 36m
Length of Day
9h 37m
Waning Crescent, 27% of the Moon is Illuminated
Dec 8
Waning Crescent
Dec 13
New
Dec 19
First Quarter
Dec 28
Full
Jan 4
Last Quarter

Hourly Weather History & Observations

Time (PST) Temp. Windchill Dew Point Humidity Pressure Visibility Wind Dir Wind Speed Gust Speed Precip Events Conditions
12:53 AM 46.0 °F 44.8 °F 42.1 °F 86% 30.09 in 10.0 mi NE 3.5 mph - N/A   Clear
1:53 AM 46.9 °F - 43.0 °F 86% 30.08 in 10.0 mi Calm Calm - N/A   Partly Cloudy
2:53 AM 44.6 °F - 41.0 °F 87% 30.09 in 10.0 mi Calm Calm - N/A   Partly Cloudy
3:53 AM 46.0 °F 44.8 °F 42.1 °F 86% 30.08 in 10.0 mi ENE 3.5 mph - N/A   Partly Cloudy
4:53 AM 44.1 °F 42.5 °F 41.0 °F 89% 30.07 in 10.0 mi NE 3.5 mph - N/A   Partly Cloudy
5:53 AM 44.1 °F - 42.1 °F 93% 30.08 in 10.0 mi Calm Calm - N/A   Partly Cloudy
6:53 AM 46.0 °F - 43.0 °F 89% 30.08 in 10.0 mi Calm Calm - N/A   Partly Cloudy
7:53 AM 46.9 °F - 44.1 °F 90% 30.08 in 10.0 mi Calm Calm - N/A   Scattered Clouds
8:53 AM 52.0 °F - 48.0 °F 86% 30.11 in 10.0 mi NE 9.2 mph - N/A   Scattered Clouds
9:53 AM 57.9 °F - 45.0 °F 62% 30.12 in 10.0 mi NNE 8.1 mph - N/A   Mostly Cloudy
10:53 AM 59.0 °F - 46.0 °F 62% 30.13 in 10.0 mi WNW 5.8 mph - N/A   Mostly Cloudy
11:53 AM 62.1 °F - 37.9 °F 41% 30.10 in 10.0 mi North 9.2 mph - N/A   Mostly Cloudy
12:53 PM 59.0 °F - 46.0 °F 62% 30.08 in 10.0 mi NW 9.2 mph - N/A   Mostly Cloudy
1:53 PM 61.0 °F - 45.0 °F 56% 30.06 in 10.0 mi West 6.9 mph - N/A   Mostly Cloudy
2:53 PM 60.1 °F - 43.0 °F 53% 30.06 in 10.0 mi WNW 8.1 mph - N/A   Mostly Cloudy
3:53 PM 59.0 °F - 42.1 °F 53% 30.06 in 10.0 mi NW 5.8 mph - N/A   Mostly Cloudy
4:53 PM 57.0 °F - 42.1 °F 57% 30.06 in 10.0 mi NW 5.8 mph - N/A   Mostly Cloudy
5:53 PM 55.9 °F - 45.0 °F 67% 30.07 in 10.0 mi NW 5.8 mph - N/A   Mostly Cloudy
6:53 PM 55.0 °F - 46.9 °F 74% 30.08 in 10.0 mi Calm Calm - N/A   Mostly Cloudy
7:53 PM 51.8 °F - 46.4 °F 82% 30.08 in 10.0 mi Calm Calm - N/A   Partly Cloudy
8:53 PM 51.1 °F - 44.1 °F 77% 30.09 in 10.0 mi NNE 3.5 mph - N/A   Partly Cloudy
9:53 PM 48.9 °F - 43.0 °F 80% 30.09 in 10.0 mi NE 3.5 mph - N/A   Partly Cloudy
10:53 PM 48.0 °F - 43.0 °F 83% 30.10 in 10.0 mi East 3.5 mph - N/A   Partly Cloudy
11:53 PM 46.9 °F - 42.1 °F 83% 30.12 in 10.0 mi NE 3.5 mph - N/A   Clear